{"data":{"norad_id":54253,"intl_designator":"2022-155C","name":"JILIN-1 GAOFEN 03D53","alt_names":[],"object_type":"PAYLOAD","status":"ACTIVE","operator":null,"country":"PRC","launch_date":"2022-11-16","launch_site_code":"JSC","launch_vehicle":null,"mission":null,"orbit_class":"UNKNOWN","rcs_meters":null,"size_class":null,"mass_kg":null,"dimensions":null,"purposes":[],"wikipedia_slug":null,"has_3d_model":false,"image_url":null,"decayed_at":null,"tle_current":{"epoch":"2026-05-25T03:17:19.513824Z","epoch_age_seconds":59224,"freshness":"FRESH","line1":"1 54253U 22155C   26145.13703141  .00028794  00000+0  49260-3 0  9995","line2":"2 54253  97.6185 284.2152 0006474  95.2776 264.9215 15.51206865195911","mean_motion":15.51206865,"eccentricity":0.0006474,"inclination_deg":97.6185,"raan_deg":284.2152,"arg_perigee_deg":95.2776,"mean_anomaly_deg":264.9215,"bstar":0.0004926,"rev_number":19591,"period_min":92.830945536075,"perigee_km":408.80455458749,"apogee_km":417.59797937558,"semimajor_km":6791.3382669815,"source":"CELESTRAK","updated_at":"2026-05-25T13:37:58.665552Z"}}}